Location: ??????
(38.0677°N, 22.9870°E)
Time: 11:12:54
(UTC+00:00)

Genesis I - Pass Details

Date: 23 May 2024
Orbit: 432 x 466 km, 64.5° (Epoch: 23 June)

Event Time Altitude Azimuth Distance (km) Brightness Sun altitude
Exits shadow 00:31:20 45° 41° (NE) 616 3.9 -24.2°
Drops below altitude 10° 00:33:54 10° 33° (NNE) 1,584 6.8 -23.9°
Sets 00:36:01 0° 33° (NNE) 2,468 8.1 -23.7°
